This is the latest recevied weather packets stored in our database for station/object PA0HHN. If no packets are shown the sender has not sent any weather packets the latest 10 day(s).
| Time | Temp. | Humidity | Pressure | Rain* | Wind** | Luminosity | Snow |
|---|---|---|---|---|---|---|---|
| 1778184902 | 8.89° C | 82% | 1012.3 hPa | - | - | - | - |
| 1778184000 | 10° C | 80% | 1012.2 hPa | - | - | - | - |
| 1778183102 | 10° C | 79% | 1012.2 hPa | - | - | - | - |
| 1778182201 | 10° C | 78% | 1012.1 hPa | - | - | - | - |
| 1778181301 | 11.11° C | 77% | 1011.8 hPa | - | - | - | - |
| 1778180401 | 11.11° C | 76% | 1011.6 hPa | - | - | - | - |
| 1778179502 | 12.22° C | 74% | 1011.6 hPa | - | - | - | - |
| 1778178600 | 12.22° C | 72% | 1011.4 hPa | - | - | - | - |
| 1778177702 | 12.22° C | 70% | 1011.4 hPa | - | - | - | - |
| 1778176801 | 12.78° C | 69% | 1011.4 hPa | - | - | - | - |
| 1778175901 | 12.78° C | 68% | 1011.3 hPa | - | - | - | - |
| 1778175000 | 13.89° C | 67% | 1011.1 hPa | - | - | - | - |
| 1778174102 | 13.89° C | 66% | 1011.1 hPa | - | - | - | - |
| 1778173200 | 13.89° C | 63% | 1011 hPa | - | - | - | - |
| 1778172302 | 15° C | 62% | 1010.8 hPa | - | - | - | - |
| 1778171401 | 15° C | 62% | 1010.7 hPa | - | - | - | - |
| 1778169601 | 15° C | 60% | 1010.4 hPa | - | - | - | - |
| 1778168701 | 15° C | 62% | 1010.3 hPa | - | - | - | - |
| 1778167802 | 15° C | 61% | 1010.4 hPa | - | - | - | - |
| 1778166901 | 15° C | 61% | 1010.3 hPa | - | - | - | - |
| 1778166002 | 15° C | 60% | 1010.2 hPa | - | - | - | - |
| 1778160602 | 17.78° C | 53% | 1010 hPa | - | - | - | - |
| 1778159701 | 17.22° C | 52% | 1010 hPa | - | - | - | - |
| 1778158801 | 17.22° C | 48% | 1009.9 hPa | - | - | - | - |
| 1778157900 | 17.22° C | 56% | 1009.9 hPa | - | - | - | - |
* Rain since midnight (hover to see other rain measurements)
** Current wind speed in m/s (hover to see current wind gust speed)